FW6223 Weather Reports


Display with metric or nautical units.
time (UTC)temp
F
wind
direction
speed
MPH
gust
MPH
rain 1hr
in
rain 24hr
in
rain mn
in
humidity
%
barometer
mb
20260509011547 55 0.0 0.0 0.00 0.00 0.00 33 1008.3
20260509011017 56 0.0 0.0 0.00 0.00 0.00 34 1008.2
20260509010547 57 0.0 0.0 0.00 0.00 0.00 33 1008.2
20260509010017 58 0.0 0.0 0.00 0.00 0.00 31 1008.2
20260509005516 58 0.0 2.0 0.00 0.00 0.00 30 1008.2
20260509005017 59 293 2.0 3.0 0.00 0.00 0.00 29 1008.0
20260509004547 59 0.0 2.0 0.00 0.00 0.00 29 1008.0
20260509004017 60 315 2.0 6.0 0.00 0.00 0.00 28 1008.0
20260509003517 60 293 2.0 10.0 0.00 0.00 0.00 27 1008.0
20260509003017 60 293 2.0 11.0 0.00 0.00 0.00 27 1008.0
20260509002517 60 293 4.0 11.0 0.00 0.00 0.00 27 1008.1
20260509002017 61 293 2.0 3.0 0.00 0.00 0.00 28 1007.9
20260509001547 61 293 2.0 6.0 0.00 0.00 0.00 27 1008.0
20260509001017 62 0.0 5.0 0.00 0.00 0.00 27 1007.9
20260509000517 62 270 2.0 6.0 0.00 0.00 0.00 26 1007.9
20260509000016 63 270 2.0 6.0 0.00 0.00 0.00 26 1007.8
20260508235517 64 293 2.0 6.0 0.00 0.00 0.00 25 1007.9
20260508235016 65 293 2.0 10.0 0.00 0.00 0.00 25 1007.9
20260508234516 65 0.0 2.0 0.00 0.00 0.00 26 1008.0
20260508234017 65 293 2.0 8.0 0.00 0.00 0.00 25 1007.9
20260508233516 65 293 2.0 5.0 0.00 0.00 0.00 26 1007.8
20260508233047 65 293 2.0 5.0 0.00 0.00 0.00 25 1007.7
20260508232517 66 270 2.0 6.0 0.00 0.00 0.00 24 1007.7
20260508232047 66 315 2.0 6.0 0.00 0.00 0.00 25 1007.7
20260508231517 66 0.0 5.0 0.00 0.00 0.00 26 1007.7
20260508231016 66 270 2.0 11.0 0.00 0.00 0.00 26 1007.6
20260508230517 66 248 2.0 11.0 0.00 0.00 0.00 25 1007.6
20260508230017 66 0.0 10.0 0.00 0.00 0.00 27 1007.7
20260508225517 66 315 2.0 8.0 0.00 0.00 0.00 27 1007.6
20260508225016 66 0.0 3.0 0.00 0.00 0.00 28 1007.7
20260508224516 65 0.0 2.0 0.00 0.00 0.00 28 1007.7
20260508224117 65 248 2.0 6.0 0.00 0.00 0.00 27 1007.7
20260508223547 65 0.0 3.0 0.00 0.00 0.00 29 1007.7
20260508223017 65 0.0 3.0 0.00 0.00 0.00 26 1007.6
20260508222516 65 0.0 5.0 0.00 0.00 0.00 28 1007.6
20260508222016 64 0.0 5.0 0.00 0.00 0.00 30 1007.7
20260508221517 64 248 2.0 10.0 0.00 0.00 0.00 30 1007.7
20260508221017 65 0.0 3.0 0.00 0.00 0.00 29 1007.6
20260508220516 65 248 2.0 6.0 0.00 0.00 0.00 29 1007.7
20260508220016 65 0.0 3.0 0.00 0.00 0.00 30 1007.6
20260508215547 65 248 2.0 11.0 0.00 0.00 0.00 29 1007.6
20260508215016 65 248 2.0 3.0 0.00 0.00 0.00 33 1007.7
20260508214516 65 0.0 10.0 0.00 0.00 0.00 34 1007.6
20260508214017 65 248 2.0 8.0 0.00 0.00 0.00 32 1007.8
20260508213546 65 0.0 2.0 0.00 0.00 0.00 32 1007.8
20260508213016 65 248 2.0 8.0 0.00 0.00 0.00 33 1007.8
20260508212516 65 248 2.0 5.0 0.00 0.00 0.00 33 1007.9
20260508212046 65 270 2.0 8.0 0.00 0.00 0.00 32 1007.8
20260508211516 65 338 2.0 6.0 0.00 0.00 0.00 32 1007.8
20260508211016 65 248 2.0 10.0 0.00 0.00 0.00 31 1007.9
20260508210516 65 270 4.0 13.0 0.00 0.00 0.00 31 1008.0
20260508210016 65 248 2.0 6.0 0.00 0.00 0.00 31 1007.9
20260508205516 65 338 2.0 6.0 0.00 0.00 0.00 32 1008.0
20260508205016 65 0.0 3.0 0.00 0.00 0.00 33 1008.0
20260508204516 65 248 2.0 8.0 0.00 0.00 0.00 32 1008.1
20260508204016 65 248 2.0 8.0 0.00 0.00 0.00 33 1008.2
20260508203546 65 338 2.0 10.0 0.00 0.00 0.00 33 1008.2
20260508203016 65 0.0 2.0 0.00 0.00 0.00 32 1008.3
20260508202516 65 225 2.0 10.0 0.00 0.00 0.00 37 1008.4
20260508202046 65 248 2.0 8.0 0.00 0.00 0.00 34 1008.4
20260508201516 65 270 2.0 8.0 0.00 0.00 0.00 32 1008.5
20260508201016 65 248 2.0 10.0 0.00 0.00 0.00 33 1008.5
20260508200546 65 248 2.0 5.0 0.00 0.00 0.00 34 1008.7
20260508200046 65 315 4.0 11.0 0.00 0.00 0.00 32 1008.8
20260508195516 65 0.0 3.0 0.00 0.00 0.00 35 1008.8
20260508195016 65 315 2.0 5.0 0.00 0.00 0.00 32 1008.9
20260508194516 65 293 4.0 10.0 0.00 0.00 0.00 32 1009.1
20260508194016 65 248 2.0 3.0 0.00 0.00 0.00 32 1009.1
20260508193516 65 0.0 3.0 0.00 0.00 0.00 34 1009.1
20260508193047 65 293 2.0 5.0 0.00 0.00 0.00 34 1009.2
20260508192546 65 293 2.0 10.0 0.00 0.00 0.00 33 1009.4
20260508192016 66 0.0 3.0 0.00 0.00 0.00 35 1009.4
20260508191516 65 338 2.0 6.0 0.00 0.00 0.00 35 1009.5
20260508191016 64 0.0 3.0 0.00 0.00 0.00 34 1009.7
20260508190516 64 0.0 5.0 0.00 0.00 0.00 37 1009.7
20260508190046 64 315 4.0 10.0 0.00 0.00 0.00 33 1009.8
20260508185516 64 225 2.0 5.0 0.00 0.00 0.00 35 1009.8
20260508185016 64 248 2.0 5.0 0.00 0.00 0.00 35 1010.0
20260508184516 64 0.0 6.0 0.00 0.00 0.00 35 1009.9
20260508184016 64 248 2.0 6.0 0.00 0.00 0.00 35 1009.9
20260508183516 64 248 2.0 6.0 0.00 0.00 0.00 37 1010.0
20260508183016 64 248 2.0 5.0 0.00 0.00 0.00 36 1010.0
20260508182516 64 248 2.0 5.0 0.00 0.00 0.00 37 1010.1
20260508182046 64 248 2.0 6.0 0.00 0.00 0.00 39 1010.1
20260508181616 64 0.0 6.0 0.00 0.00 0.00 36 1010.3
20260508181016 64 248 2.0 8.0 0.00 0.00 0.00 36 1010.4
20260508180546 63 248 2.0 6.0 0.00 0.00 0.00 35 1010.6
20260508180046 63 0.0 5.0 0.00 0.00 0.00 33 1010.6
20260508175516 63 338 2.0 6.0 0.00 0.00 0.00 32 1010.7
20260508175046 64 315 2.0 8.0 0.00 0.00 0.00 33 1010.7
20260508174516 63 248 2.0 10.0 0.00 0.00 0.00 36 1010.8
20260508174016 63 248 2.0 10.0 0.00 0.00 0.00 34 1010.8
20260508173516 64 248 2.0 13.0 0.00 0.00 0.00 33 1010.9
20260508173016 64 293 4.0 10.0 0.00 0.00 0.00 32 1011.0
20260508172516 64 270 2.0 5.0 0.00 0.00 0.00 32 1011.1
20260508172016 63 248 2.0 11.0 0.00 0.00 0.00 34 1011.2
20260508171516 63 23 2.0 8.0 0.00 0.00 0.00 34 1011.2
20260508171016 63 113 2.0 5.0 0.00 0.00 0.00 35 1011.4
20260508170546 64 248 2.0 6.0 0.00 0.00 0.00 34 1011.5
20260508170016 64 0.0 3.0 0.00 0.00 0.00 34 1011.5
20260508165546 63 248 2.0 5.0 0.00 0.00 0.00 34 1011.5
20260508165046 64 248 2.0 6.0 0.00 0.00 0.00 35 1011.5
20260508164546 64 0 2.0 8.0 0.00 0.00 0.00 34 1011.5
20260508164046 63 0.0 6.0 0.00 0.00 0.00 35 1011.8
20260508163516 63 0.0 5.0 0.00 0.00 0.00 35 1011.7
20260508163016 62 248 2.0 6.0 0.00 0.00 0.00 35 1011.8
20260508162546 62 248 2.0 6.0 0.00 0.00 0.00 34 1011.8
20260508162116 63 248 2.0 5.0 0.00 0.00 0.00 35 1011.9
20260508161516 62 293 2.0 10.0 0.00 0.00 0.00 37 1011.8
20260508161016 61 248 4.0 8.0 0.00 0.00 0.00 40 1011.9
20260508160516 61 90 2.0 6.0 0.00 0.00 0.00 41 1011.9
20260508160016 62 0.0 3.0 0.00 0.00 0.00 40 1012.0
20260508155516 61 23 2.0 6.0 0.00 0.00 0.00 42 1012.1
20260508155016 62 0.0 5.0 0.00 0.00 0.00 42 1012.2
20260508154516 61 248 2.0 5.0 0.00 0.00 0.00 41 1012.3
20260508154146 60 68 2.0 5.0 0.00 0.00 0.00 46 1012.2
20260508153515 61 248 2.0 6.0 0.00 0.00 0.00 44 1012.2
20260508153016 60 248 2.0 5.0 0.00 0.00 0.00 43 1012.2
20260508152516 59 113 2.0 5.0 0.00 0.00 0.00 44 1012.2
20260508152016 59 135 2.0 5.0 0.00 0.00 0.00 46 1012.3
20260508151516 60 248 2.0 6.0 0.00 0.00 0.00 43 1012.3
20260508151016 59 90 2.0 5.0 0.00 0.00 0.00 45 1012.4
20260508150516 59 0.0 3.0 0.00 0.00 0.00 46 1012.4
20260508150016 59 45 2.0 6.0 0.00 0.00 0.00 42 1012.5
20260508145516 58 248 2.0 6.0 0.00 0.00 0.00 49 1012.5
20260508145016 59 0.0 2.0 0.00 0.00 0.00 47 1012.5
20260508144516 58 293 2.0 6.0 0.00 0.00 0.00 47 1012.5
20260508144016 58 0 2.0 6.0 0.00 0.00 0.00 51 1012.5
20260508143516 57 0.0 3.0 0.00 0.00 0.00 53 1012.6
20260508143047 57 68 2.0 5.0 0.00 0.00 0.00 49 1012.6
20260508142516 56 0.0 2.0 0.00 0.00 0.00 51 1012.7
20260508142016 56 0.0 3.0 0.00 0.00 0.00 52 1012.7
20260508141516 56 135 2.0 5.0 0.00 0.00 0.00 53 1012.8
20260508141015 56 0.0 3.0 0.00 0.00 0.00 52 1012.8
20260508140546 56 0.0 3.0 0.00 0.00 0.00 57 1012.8
20260508140015 56 0.0 2.0 0.00 0.00 0.00 58 1012.9
20260508135546 55 0.0 3.0 0.00 0.00 0.00 58 1013.0
20260508135016 54 0.0 2.0 0.00 0.00 0.00 58 1013.0
20260508134516 52 0.0 3.0 0.00 0.00 0.00 59 1012.9
20260508134015 52 0.0 2.0 0.00 0.00 0.00 60 1013.0
20260508133515 51 0.0 2.0 0.00 0.00 0.00 62 1013.0
20260508133015 50 135 2.0 5.0 0.00 0.00 0.00 61 1013.1
20260508132516 50 113 2.0 5.0 0.00 0.00 0.00 62 1013.1
20260508132016 50 0.0 2.0 0.00 0.00 0.00 64 1013.2
20260508131516 49 0.0 3.0 0.00 0.00 0.00 65 1013.2
20260508131015 48 0.0 3.0 0.00 0.00 0.00 65 1013.2
20260508130515 48 0.0 2.0 0.00 0.00 0.00 66 1013.2
20260508130016 47 0.0 2.0 0.00 0.00 0.00 67 1013.1
20260508125516 46 0.0 2.0 0.00 0.00 0.00 69 1013.1
20260508125046 45 0.0 2.0 0.00 0.00 0.00 70 1013.1
20260508124546 44 0.0 2.0 0.00 0.00 0.00 72 1013.1
20260508124046 43 0.0 2.0 0.00 0.00 0.00 76 1013.0
20260508123516 42 0.0 2.0 0.00 0.00 0.00 82 1013.0
20260508123016 41 0.0 0.0 0.00 0.00 0.00 87 1013.0
20260508122515 40 0.0 2.0 0.00 0.00 0.00 90 1012.9
20260508122016 40 0.0 0.0 0.00 0.00 0.00 92 1012.9
20260508121516 39 0.0 0.0 0.00 0.00 0.00 92 1012.8
20260508121015 39 0.0 0.0 0.00 0.00 0.00 92 1012.8
20260508120515 38 0.0 0.0 0.00 0.00 0.00 92 1012.7
20260508120015 38 0.0 0.0 0.00 0.00 0.00 92 1012.7
20260508115515 37 0.0 0.0 0.00 0.00 0.00 91 1012.7
20260508115015 37 0.0 0.0 0.00 0.00 0.00 91 1012.7
20260508114515 36 0.0 0.0 0.00 0.00 0.00 91 1012.6
20260508114015 36 0.0 0.0 0.00 0.00 0.00 91 1012.6
20260508113515 36 0.0 0.0 0.00 0.00 0.00 91 1012.7
20260508113015 35 0.0 0.0 0.00 0.00 0.00 91 1012.5
20260508112515 35 0.0 0.0 0.00 0.00 0.00 91 1012.6
20260508112016 35 0.0 0.0 0.00 0.00 0.00 91 1012.5
20260508111516 35 0.0 0.0 0.00 0.00 0.00 91 1012.5
20260508111015 34 0.0 0.0 0.00 0.00 0.00 91 1012.3
20260508110515 34 0.0 0.0 0.00 0.00 0.00 90 1012.3
20260508110016 34 0.0 0.0 0.00 0.00 0.00 90 1012.2
20260508105515 34 0.0 0.0 0.00 0.00 0.00 90 1012.1
20260508105015 34 0.0 0.0 0.00 0.00 0.00 90 1012.1
20260508104515 34 0.0 0.0 0.00 0.00 0.00 89 1012.2
20260508104015 34 0.0 0.0 0.00 0.00 0.00 89 1012.1
20260508103515 34 0.0 0.0 0.00 0.00 0.00 88 1012.1
20260508103015 34 0.0 0.0 0.00 0.00 0.00 88 1012.0
20260508102515 34 0.0 0.0 0.00 0.00 0.00 88 1012.0
20260508102015 34 0.0 0.0 0.00 0.00 0.00 88 1012.0
20260508101515 34 0.0 0.0 0.00 0.00 0.00 88 1012.0
20260508101015 34 0.0 0.0 0.00 0.00 0.00 88 1011.9
20260508100515 34 0.0 0.0 0.00 0.00 0.00 88 1011.8
20260508100045 34 0.0 0.0 0.00 0.00 0.00 87 1011.9
20260508095545 35 0.0 0.0 0.00 0.00 0.00 87 1011.9
20260508095015 35 0.0 0.0 0.00 0.00 0.00 87 1011.9
20260508094517 35 0.0 0.0 0.00 0.00 0.00 87 1012.0
20260508094017 35 0.0 0.0 0.00 0.00 0.00 86 1012.0
20260508093547 36 0.0 0.0 0.00 0.00 0.00 87 1012.0
20260508093017 36 0.0 0.0 0.00 0.00 0.00 87 1012.0
20260508092517 36 0.0 0.0 0.00 0.00 0.00 87 1011.9
20260508092047 36 0.0 0.0 0.00 0.00 0.00 87 1012.0
20260508091517 36 0.0 0.0 0.00 0.00 0.00 86 1012.0
20260508091017 36 0.0 0.0 0.00 0.00 0.00 86 1012.0
20260508090517 36 0.0 0.0 0.00 0.00 0.00 85 1012.0
20260508090017 37 0.0 0.0 0.00 0.00 0.00 85 1012.0
20260508085517 37 0.0 0.0 0.00 0.00 0.00 85 1012.0
20260508085017 37 0.0 0.0 0.00 0.00 0.00 85 1012.0
20260508084517 37 0.0 0.0 0.00 0.00 0.00 85 1012.1
20260508084017 37 0.0 0.0 0.00 0.00 0.00 85 1012.2
20260508083547 38 0.0 0.0 0.00 0.00 0.00 84 1012.2
20260508083047 38 0.0 0.0 0.00 0.00 0.00 84 1012.2
20260508082547 38 0.0 0.0 0.00 0.00 0.00 84 1012.1
20260508082017 38 0.0 0.0 0.00 0.00 0.00 83 1012.2
20260508081517 39 0.0 0.0 0.00 0.00 0.00 83 1012.2
20260508081017 39 0.0 0.0 0.00 0.00 0.00 83 1012.3
20260508080547 39 0.0 0.0 0.00 0.00 0.00 83 1012.3
20260508080017 39 0.0 0.0 0.00 0.00 0.00 82 1012.3
20260508075517 40 0.0 0.0 0.00 0.00 0.00 83 1012.4
20260508075017 40 0.0 0.0 0.00 0.00 0.00 83 1012.5
20260508074547 40 0.0 0.0 0.00 0.00 0.00 83 1012.4
20260508074017 40 0.0 0.0 0.00 0.00 0.00 83 1012.4
20260508073517 40 0.0 0.0 0.00 0.00 0.00 82 1012.4
20260508073047 40 0.0 0.0 0.00 0.00 0.00 82 1012.5
20260508072517 40 0.0 0.0 0.00 0.00 0.00 82 1012.5
20260508072047 40 0.0 0.0 0.00 0.00 0.00 82 1012.5
20260508071547 40 0.0 2.0 0.00 0.00 0.00 81 1012.5
20260508071017 40 0.0 0.0 0.00 0.00 0.00 80 1012.5
20260508070547 40 0.0 0.0 0.00 0.00 0.00 81 1012.4
20260508070017 41 0.0 0.0 0.00 0.00 0.00 80 1012.6
20260508065517 41 0.0 0.0 0.00 0.00 0.00 78 1012.6
20260508065047 41 0.0 0.0 0.00 0.00 0.00 78 1012.6
20260508064547 41 0.0 0.0 0.00 0.00 0.00 78 1012.7
20260508064017 42 0.0 0.0 0.00 0.00 0.00 77 1012.6
20260508063517 42 0.0 0.0 0.00 0.00 0.00 75 1012.8
20260508063017 42 0.0 0.0 0.00 0.00 0.00 75 1012.8
20260508062517 42 0.0 0.0 0.00 0.00 0.00 75 1012.9
20260508062017 43 0.0 0.0 0.00 0.00 0.00 76 1012.9
20260508061517 43 0.0 0.0 0.00 0.00 0.00 76 1013.0
20260508061017 43 0.0 0.0 0.00 0.00 0.00 73 1012.9
20260508060517 43 0.0 0.0 0.00 0.00 0.00 71 1012.9
20260508060017 44 0.0 0.0 0.00 0.00 0.00 71 1012.9
20260508055517 44 0.0 0.0 0.00 0.00 0.00 71 1013.0
20260508055047 44 0.0 0.0 0.00 0.00 0.00 71 1012.9
20260508054517 44 0.0 0.0 0.00 0.00 0.00 71 1013.0
20260508054017 44 0.0 0.0 0.00 0.00 0.00 71 1012.9
20260508053617 44 0.0 0.0 0.00 0.00 0.00 72 1013.0
20260508053016 44 0.0 0.0 0.00 0.00 0.00 72 1012.9
20260508052547 44 0.0 0.0 0.00 0.00 0.00 75 1012.8
20260508052016 44 0.0 0.0 0.00 0.00 0.00 75 1012.8
20260508051517 44 0.0 0.0 0.00 0.00 0.00 74 1012.8
20260508051047 44 0.0 0.0 0.00 0.00 0.00 71 1012.7
20260508050547 44 0.0 0.0 0.00 0.00 0.00 71 1012.8
20260508050016 44 0.0 0.0 0.00 0.00 0.00 72 1012.9
20260508045547 44 0.0 0.0 0.00 0.00 0.00 72 1012.8
20260508045017 44 0.0 0.0 0.00 0.00 0.00 75 1012.8
20260508044517 44 0.0 0.0 0.00 0.00 0.00 74 1012.8
20260508044017 44 0.0 0.0 0.00 0.00 0.00 74 1012.7
20260508043517 44 0.0 0.0 0.00 0.00 0.00 74 1012.8
20260508043047 45 0.0 2.0 0.00 0.00 0.00 75 1012.7
20260508042547 45 0.0 2.0 0.00 0.00 0.00 75 1012.6
20260508042017 45 0.0 2.0 0.00 0.00 0.00 75 1012.6
20260508041516 46 0.0 0.0 0.00 0.00 0.00 74 1012.7
20260508041117 46 0.0 0.0 0.00 0.00 0.00 74 1012.6
20260508040517 46 0.0 0.0 0.00 0.00 0.00 73 1012.7
20260508040016 47 0.0 0.0 0.00 0.00 0.00 73 1012.8
20260508035517 47 0.0 0.0 0.00 0.00 0.00 72 1012.7
20260508035017 47 0.0 0.0 0.00 0.00 0.00 72 1012.7
20260508034517 47 0.0 0.0 0.00 0.00 0.00 72 1012.6
20260508034017 47 0.0 0.0 0.00 0.00 0.00 72 1012.8
20260508033517 48 0.0 0.0 0.00 0.00 0.00 73 1012.7
20260508033017 48 0.0 0.0 0.00 0.00 0.00 73 1012.7
20260508032517 48 0.0 0.0 0.00 0.00 0.00 72 1012.7
20260508032017 48 0.0 0.0 0.00 0.00 0.00 71 1012.6
20260508031517 48 0.0 0.0 0.00 0.00 0.00 72 1012.6
20260508031017 48 0.0 0.0 0.00 0.00 0.00 71 1012.5
20260508030517 48 0.0 0.0 0.00 0.00 0.00 70 1012.6
20260508030017 48 0.0 0.0 0.00 0.00 0.00 72 1012.7
20260508025517 48 0.0 0.0 0.00 0.00 0.00 71 1012.7
20260508025047 48 0.0 0.0 0.00 0.00 0.00 71 1012.8
20260508024517 48 0.0 0.0 0.00 0.00 0.00 71 1012.8
20260508024047 48 0.0 0.0 0.00 0.00 0.00 71 1012.7
20260508023517 48 0.0 0.0 0.00 0.00 0.00 70 1012.6
20260508023017 48 0.0 0.0 0.00 0.00 0.00 70 1012.5
20260508022547 48 0.0 0.0 0.00 0.00 0.00 69 1012.5
20260508022017 48 0.0 0.0 0.00 0.00 0.00 68 1012.5
20260508021517 48 0.0 0.0 0.00 0.00 0.00 67 1012.5
20260508021017 48 0.0 0.0 0.00 0.00 0.00 68 1012.5
20260508020517 48 0.0 0.0 0.00 0.00 0.00 70 1012.5
20260508020017 48 0.0 0.0 0.00 0.00 0.00 69 1012.3
20260508015517 48 0.0 0.0 0.00 0.00 0.00 68 1012.3
20260508015017 48 0.0 0.0 0.00 0.00 0.00 66 1012.3
20260508014517 48 0.0 0.0 0.00 0.00 0.00 64 1012.2
20260508014017 48 0.0 0.0 0.00 0.00 0.00 62 1012.3
20260508013517 48 0.0 0.0 0.00 0.00 0.00 61 1012.1
20260508013047 49 0.0 0.0 0.00 0.00 0.00 60 1012.1
20260508012517 49 0.0 0.0 0.00 0.00 0.00 60 1012.0
20260508012017 49 0.0 0.0 0.00 0.00 0.00 61 1011.9